Location: Rounton
(54.4000°N, 1.3500°W)
Time: 04:26:39
(UTC+00:00)

Vanguard 1 - Pass Details

Date: 03 December 2021
Orbit: 652 x 3830 km, 34.2° (Epoch: 17 January)

Event Time Altitude Azimuth Distance (km) Brightness Sun altitude
Exits shadow 05:09:17 22° 244° (WSW) 5,430 13.3 -24.4°
Maximum altitude 05:17:35 29° 211° (SSW) 4,397 13.1 -23.2°
Drops below altitude 10° 05:28:54 10° 159° (SSE) 4,686 13.9 -21.6°
Sets 05:32:32 0° 148° (SSE) 5,265 14.4 -21.1°
